GFSFLT2_925_rhum_078.txt.gz
RH
99 99 100 100 100 100 99 97 94 92 97 91 89 100 100 90 84 82 79 82 98 99 99 100 85 90 74
100 99 100 100 100 100 99 94 91 90 91 86 90 99 100 93 93 82 85 82 80 94 100 100 100 100 96
100 100 100 100 100 100 97 91 89 92 92 86 86 84 97 94 84 79 76 75 80 77 89 100 100 100 100
100 100 100 100 100 99 99 94 86 83 79 68 63 56 79 71 55 56 75 80 78 76 75 82 95 99 100
100 100 100 100 99 98 96 90 87 80 72 65 59 50 52 53 46 37 38 50 81 85 82 76 78 84 90
100 99 99 99 99 93 88 84 79 78 70 59 53 55 56 67 58 45 43 41 40 62 79 78 81 78 74
99 98 95 92 90 91 85 84 73 65 66 50 57 54 57 44 51 57 64 82 84 66 50 42 42 44 46
93 90 88 82 84 85 85 78 71 57 49 53 57 55 62 64 60 90 86 81 83 90 88 87 91 81 79
76 83 86 87 84 83 83 76 60 56 50 54 62 62 68 82 92 93 79 91 93 98 99 87 69 63 63
85 78 82 84 81 78 83 85 64 62 63 66 67 63 70 81 91 80 87 98 97 93 83 73 61 67 73
65 70 80 87 79 60 63 68 81 82 61 74 77 68 92 83 80 78 73 78 72 68 63 58 50 48 79
55 48 48 64 73 50 38 40 44 43 51 57 70 87 84 76 67 74 72 67 63 65 64 56 52 48 44
55 56 66 73 58 45 45 46 46 46 63 71 64 57 59 86 75 72 68 64 55 59 59 58 69 73 61
57 65 69 46 66 62 82 77 90 80 63 58 62 66 67 66 79 85 72 84 80 71 69 72 68 67 63
63 63 63 71 73 79 84 91 86 81 90 65 67 72 75 76 85 79 70 70 77 82 68 68 74 73 78
80 71 61 70 75 86 85 88 82 80 82 94 96 97 87 56 46 77 67 74 82 77 66 92 90 88 77
88 86 80 78 77 82 85 84 86 84 85 94 97 92 80 68 69 35 85 86 89 88 91 95 94 96 89

GFSFLT2_925_rhum_081.txt.gz
RH
96 94 98 100 100 100 100 98 97 98 94 90 88 99 100 100 98 89 80 76 84 96 96 90 87 84 69
99 99 99 100 100 100 100 99 98 96 94 87 85 96 99 97 98 85 82 84 81 83 99 99 100 97 85
100 100 100 100 100 100 100 98 94 94 93 89 86 84 90 89 81 76 77 75 79 79 86 100 100 99 100
100 100 99 99 100 99 100 98 92 93 92 82 74 65 74 66 50 50 66 76 78 78 77 82 98 99 99
100 100 100 100 99 99 100 97 95 88 82 69 66 60 60 55 50 41 34 45 78 83 78 75 76 88 97
100 99 99 98 98 99 98 92 89 81 79 71 65 60 56 52 58 48 41 38 42 72 79 78 76 74 74
99 98 96 94 95 98 93 88 82 72 74 65 58 54 56 50 47 50 61 77 75 54 46 50 54 59 63
97 95 95 89 92 89 88 84 69 66 57 55 54 54 57 55 52 80 80 83 87 88 82 88 61 53 58
84 85 87 87 86 87 86 80 70 64 53 53 55 60 62 79 92 92 77 90 93 98 95 71 64 67 67
52 65 84 89 92 85 86 83 66 61 59 55 61 61 69 80 88 86 83 96 97 93 82 70 61 60 65
73 80 88 87 82 80 82 82 76 80 61 56 68 64 93 80 86 80 85 86 84 79 65 58 52 49 64
61 60 71 81 80 61 56 58 56 50 45 60 70 74 77 80 75 76 78 76 70 64 57 53 48 46 43
57 50 48 65 74 54 42 40 42 41 46 58 54 67 69 86 74 65 75 69 68 65 61 56 52 53 50
57 59 67 71 64 50 50 51 59 63 59 62 58 54 55 60 74 82 60 76 68 59 58 56 51 54 52
58 65 70 66 74 73 79 78 86 88 77 61 60 62 58 63 71 65 83 77 79 69 64 60 53 50 49
62 64 64 70 75 82 85 84 83 80 85 88 72 78 70 53 55 64 67 66 70 72 68 65 55 54 61
77 72 64 66 77 81 83 85 86 82 82 88 93 89 93 91 69 40 64 77 73 79 72 80 82 84 81

GFSFLT2_925_rhum_084.txt.gz
RH
90 93 98 96 99 99 99 98 98 96 96 93 86 83 84 88 100 97 85 80 76 85 98 99 92 78 85
96 97 98 100 98 99 99 100 100 100 98 93 87 89 90 93 95 85 86 82 79 78 91 99 98 87 86
96 96 99 99 99 99 100 100 99 96 97 90 86 82 91 85 80 72 75 77 78 78 77 94 100 100 96
100 100 100 100 100 100 100 100 96 97 95 90 85 76 79 67 54 41 52 67 74 76 79 78 95 100 100
100 100 100 100 99 100 100 99 98 92 92 89 81 73 63 62 55 42 32 36 62 79 76 74 76 90 98
100 99 99 99 98 98 99 99 97 94 90 80 68 65 61 58 57 49 36 35 37 68 80 77 72 73 80
100 98 97 93 94 98 99 96 90 76 84 76 67 60 57 55 51 48 52 64 62 50 56 65 68 70 68
98 94 92 92 92 92 92 94 80 72 75 65 60 55 58 50 50 76 80 78 90 76 80 57 57 65 51
89 90 90 90 88 92 92 85 75 71 63 52 54 58 58 66 80 95 78 88 97 98 98 67 62 60 59
79 80 85 88 88 88 84 85 75 68 62 48 56 56 65 85 92 86 79 92 99 100 90 67 59 55 54
68 63 76 91 96 89 82 82 79 64 56 50 59 61 87 76 90 82 82 92 88 90 77 62 54 55 57
77 77 88 86 85 84 83 86 86 73 50 46 52 54 78 81 78 80 79 81 74 74 65 56 50 46 45
71 64 65 82 82 68 64 64 62 59 45 50 49 50 61 64 71 70 76 69 65 67 62 56 53 49 48
62 58 51 68 73 62 46 43 44 56 56 62 56 53 68 73 70 57 63 62 66 68 65 62 55 52 46
64 61 61 63 70 58 45 51 60 64 65 69 66 62 58 52 56 59 68 66 64 58 59 55 49 47 45
64 62 68 71 73 76 72 67 85 86 71 67 66 71 66 55 55 55 63 82 76 72 67 67 47 36 40
62 63 64 65 81 83 89 87 77 85 84 80 73 67 98 91 68 52 62 68 64 68 71 72 57 55 67

GFSFLT2_925_rhum_087.txt.gz
RH
94 96 94 95 95 99 97 94 92 98 100 97 93 90 87 89 83 99 98 89 83 77 91 100 96 95 81
95 97 99 100 99 99 99 94 99 99 100 100 94 95 96 88 84 80 79 81 80 77 77 88 100 98 83
94 96 98 98 100 100 99 100 99 100 100 98 92 88 92 89 83 68 66 73 77 75 74 78 96 99 97
95 96 96 98 100 99 97 99 99 99 100 96 92 88 85 77 67 51 41 54 69 73 74 74 86 99 100
100 100 100 100 98 99 100 100 100 96 98 97 93 88 77 78 68 58 43 32 49 79 74 73 74 93 100
99 99 98 93 94 99 100 100 99 98 94 92 90 73 68 65 62 58 44 35 33 64 81 76 70 75 89
91 98 96 91 90 100 100 98 94 85 96 86 82 69 65 60 56 48 45 56 59 53 71 74 74 72 70
91 90 93 89 87 86 91 97 96 83 88 74 70 64 59 57 48 53 72 70 82 85 80 71 71 64 65
92 92 91 93 92 96 98 97 78 71 78 62 61 58 57 55 50 95 86 86 96 98 98 92 92 63 50
92 91 89 89 90 90 91 92 76 77 70 64 55 54 62 71 81 95 84 94 96 94 89 70 64 63 60
83 80 84 88 96 93 90 87 82 74 64 64 57 59 62 86 96 92 78 93 98 98 71 63 62 62 58
80 73 71 85 99 96 86 83 81 82 78 53 46 53 78 81 85 84 88 93 89 84 79 61 54 54 60
83 77 66 62 87 90 88 87 87 88 76 56 46 48 60 59 72 80 82 77 78 75 72 58 52 52 48
78 74 69 81 81 76 78 78 76 79 70 56 59 53 58 64 56 59 64 57 66 71 68 62 60 56 50
77 72 66 74 83 81 66 61 51 66 73 72 74 63 79 67 73 66 54 59 56 62 69 62 54 47 44
79 68 71 76 79 76 63 52 55 61 56 67 77 74 66 58 54 49 60 60 62 65 62 61 45 39 38
80 72 74 71 82 83 75 65 74 76 70 59 69 65 94 85 62 54 56 56 75 78 72 67 50 40 44

GFSFLT2_925_rhum_090.txt.gz
RH
90 92 94 92 91 91 90 91 90 90 88 87 94 93 91 90 84 77 76 86 99 99 98 100 96 97 99
98 100 100 100 98 98 96 95 91 90 91 99 98 96 99 96 86 74 71 78 81 80 79 80 79 95 94
100 100 100 100 100 100 100 99 98 97 100 100 99 93 96 94 87 75 62 66 67 73 77 76 74 91 99
98 100 100 100 100 98 97 99 95 96 99 100 99 92 89 90 79 67 55 42 44 61 73 78 74 88 98
100 100 100 100 99 94 99 98 99 99 100 100 98 93 89 90 83 73 60 49 34 44 71 74 74 85 98
100 99 100 92 89 91 98 100 99 98 99 98 99 94 90 77 70 66 60 44 32 30 68 82 80 73 93
98 97 90 83 86 97 100 98 96 90 99 94 94 92 78 68 66 60 48 44 43 44 65 77 84 75 78
90 85 83 81 86 84 85 94 98 94 89 89 84 80 70 63 59 51 53 59 65 83 85 82 84 88 81
92 88 88 93 90 94 97 100 89 87 90 74 70 68 64 60 54 52 83 82 89 99 98 91 87 90 99
100 97 94 92 90 88 86 99 84 80 82 79 63 63 61 60 57 78 92 94 92 98 98 80 72 70 60
99 97 96 96 97 93 93 91 88 78 73 75 64 62 46 85 84 94 82 89 92 99 89 69 63 61 56
93 90 89 90 93 98 96 96 93 82 72 68 61 57 59 88 92 92 86 82 96 97 84 66 63 63 62
95 89 82 76 88 100 99 97 90 87 81 83 64 48 56 51 71 86 87 85 90 90 83 75 57 52 49
95 89 80 80 92 98 98 96 93 88 84 81 63 54 53 63 52 68 72 62 77 80 73 72 62 56 50
96 92 85 85 85 89 91 95 91 98 97 87 78 70 62 54 66 57 63 63 54 70 72 68 62 57 54
100 99 95 85 89 84 80 81 79 75 92 91 87 82 83 77 71 64 60 58 58 59 68 68 56 47 43
99 99 98 96 91 94 88 79 76 63 63 67 87 74 93 83 61 57 48 56 62 68 63 62 50 37 33

GFSFLT2_925_rhum_093.txt.gz
RH
96 99 100 99 96 94 92 89 90 91 90 88 89 87 91 93 89 85 78 73 71 98 100 100 100 100 100
100 100 100 100 98 96 94 95 95 93 90 91 87 87 94 94 92 87 78 68 67 72 78 78 72 77 98
100 100 99 100 100 100 100 98 93 89 88 91 97 95 96 98 96 88 74 62 58 61 65 64 70 71 79
99 100 99 100 100 99 100 100 94 94 96 94 100 98 96 97 93 81 68 61 52 42 49 60 67 70 89
100 100 100 100 100 99 100 96 99 99 97 95 99 98 93 89 92 80 76 64 56 41 33 52 63 70 93
100 99 99 100 99 99 100 100 99 96 98 95 99 98 95 90 86 83 72 64 52 37 32 66 69 71 90
100 99 100 92 89 95 97 98 94 84 100 98 99 99 98 94 77 73 67 56 44 44 46 79 79 74 80
95 88 88 85 86 79 78 89 96 92 92 96 94 95 93 82 72 69 60 55 51 63 79 91 86 75 73
100 100 99 96 89 88 95 100 99 95 95 89 82 83 78 72 65 60 68 66 71 97 95 98 98 92 71
100 100 95 92 89 89 88 99 91 90 90 90 72 70 70 68 64 55 87 94 96 93 99 92 76 69 62
100 100 100 100 99 96 94 87 91 84 84 92 71 70 51 70 72 64 87 83 92 96 100 76 67 65 55
100 100 100 100 100 99 98 98 96 89 81 80 70 68 58 85 88 88 93 86 92 98 88 78 70 63 55
100 100 99 97 97 100 100 100 100 98 90 74 72 66 64 52 68 89 98 86 94 99 96 69 61 61 65
99 99 96 93 95 98 100 100 100 97 89 77 75 76 56 56 50 64 85 76 92 100 98 86 66 56 51
100 99 98 95 96 99 100 100 98 97 93 90 84 73 60 52 62 58 72 72 69 96 97 88 74 60 53
100 100 100 99 98 99 100 100 97 97 99 96 91 86 80 70 64 57 61 72 59 84 87 80 67 59 54
100 100 100 99 99 98 98 94 97 93 97 100 96 86 95 89 70 68 62 62 63 72 83 73 57 49 47

GFSFLT2_925_rhum_096.txt.gz
RH
99 99 100 100 100 100 98 93 90 85 84 85 89 85 86 85 91 91 87 83 77 70 72 97 99 99 99
99 100 100 100 100 100 97 92 91 92 91 90 86 85 86 85 93 93 88 83 71 66 64 64 66 67 75
100 99 99 100 100 100 100 98 96 98 93 90 89 86 84 93 97 97 90 79 68 62 57 56 59 60 66
100 99 100 100 100 100 100 100 100 100 97 94 100 96 85 93 100 95 86 70 66 65 60 50 50 56 69
100 100 99 99 100 99 100 99 100 100 98 98 98 99 90 91 98 91 81 76 69 64 53 41 42 58 74
99 98 100 99 99 99 100 100 99 99 100 97 96 98 91 93 90 91 88 78 69 60 46 36 49 64 78
99 98 100 96 98 100 100 99 99 87 99 99 100 100 97 96 94 89 85 74 64 52 42 38 68 71 78
98 91 89 87 87 82 87 98 98 92 98 99 97 98 98 99 97 86 77 70 58 53 50 69 84 81 78
100 100 99 97 94 93 100 100 100 99 98 92 91 92 93 94 88 75 74 67 64 84 86 91 98 96 86
100 100 100 100 100 99 93 100 97 98 94 92 83 81 78 78 78 67 76 97 79 90 93 94 85 84 91
100 100 100 100 99 99 96 88 94 86 84 94 80 78 67 68 72 66 63 87 92 89 94 88 69 68 69
100 100 100 100 100 99 96 95 90 82 77 83 80 75 65 81 78 72 73 88 88 90 96 82 71 64 63
100 100 98 99 100 100 100 100 100 97 91 85 84 75 70 68 74 82 91 92 90 91 98 80 73 65 62
99 99 100 100 100 100 100 100 100 100 92 84 84 74 70 65 58 65 78 74 89 96 88 84 69 63 64
100 99 100 100 100 100 100 100 99 100 100 92 82 71 70 65 57 52 72 78 73 90 99 100 85 64 55
100 100 100 99 99 100 100 100 99 100 99 95 87 78 73 68 57 53 63 79 69 88 100 100 94 74 57
100 100 100 100 100 99 99 99 99 99 98 98 97 88 96 90 74 63 50 67 70 79 100 99 85 66 60

GFSFLT2_925_rhum_099.txt.gz
RH
96 96 94 99 100 100 100 100 96 92 88 92 89 94 93 93 88 86 87 88 83 79 76 69 80 96 97
97 99 99 100 98 100 100 100 99 99 97 94 93 94 92 86 85 85 90 90 86 77 69 64 62 66 62
100 100 100 100 100 100 100 100 100 100 99 95 93 91 87 86 85 90 94 92 83 73 66 61 58 55 55
100 100 100 100 100 100 100 100 100 100 100 100 99 95 94 99 92 90 96 88 76 70 67 65 61 52 50
100 100 100 100 99 98 100 100 100 100 99 100 99 99 100 100 98 87 94 82 73 70 66 62 55 44 49
99 97 99 98 100 100 99 100 99 100 100 100 100 100 99 100 95 90 89 83 80 72 65 56 42 38 62
98 99 99 98 100 100 100 97 96 98 100 100 100 100 99 96 96 94 92 91 83 71 59 44 38 51 72
100 100 96 95 95 95 100 100 100 97 96 99 100 100 95 97 96 95 93 89 77 64 49 49 63 84 78
100 100 100 99 96 100 100 100 100 99 100 95 99 100 100 99 99 99 93 83 73 58 73 78 89 97 90
93 100 100 100 100 97 97 98 99 100 99 95 94 91 89 91 95 92 90 83 77 84 89 88 79 95 95
98 99 100 100 100 100 93 93 97 96 93 95 92 89 82 84 83 80 77 86 95 93 93 93 80 85 87
100 100 100 100 98 100 100 99 96 89 86 91 87 84 70 85 84 77 68 86 90 94 88 91 84 70 66
100 100 96 98 100 100 100 100 100 98 86 90 78 80 79 75 87 91 90 87 90 92 87 84 81 66 66
99 99 100 100 100 100 99 100 100 100 95 91 85 81 76 72 69 87 86 88 92 93 87 84 81 71 62
100 100 100 100 100 100 100 100 99 100 100 96 89 80 75 71 70 71 84 79 92 92 93 90 76 67 66
100 100 100 100 100 100 100 100 99 100 99 97 94 82 71 70 66 62 75 82 78 96 100 100 98 73 59
100 100 100 100 100 100 100 100 100 100 99 98 98 94 92 93 81 57 53 78 79 100 100 100 98 80 68

GFSFLT2_925_rhum_102.txt.gz
RH
91 95 98 99 95 93 98 100 100 100 100 94 86 88 95 99 97 91 88 83 85 86 89 98 95 98 82
98 97 95 96 99 100 99 99 100 100 100 91 90 95 100 100 95 92 88 82 85 89 84 78 71 70 80
99 98 99 100 100 100 100 100 100 100 100 98 96 97 97 97 94 87 84 84 89 89 82 74 67 63 61
100 100 100 100 100 100 100 100 100 100 100 100 100 100 99 93 86 83 82 87 91 86 78 70 67 65 61
100 100 100 100 100 98 100 100 100 100 99 100 100 100 97 94 90 80 86 85 89 76 71 71 69 64 57
98 96 98 99 100 100 100 99 99 99 100 100 99 100 100 96 98 90 88 88 87 76 75 71 66 54 47
100 99 100 98 98 100 100 95 89 91 100 100 100 100 100 100 99 99 96 91 84 81 77 70 56 47 52
100 100 90 97 99 96 97 97 97 96 100 98 100 100 100 100 100 100 95 94 91 88 76 62 47 51 56
96 99 100 95 99 100 100 100 98 100 100 97 100 100 100 100 99 98 97 97 92 86 73 54 56 69 60
91 79 99 99 98 100 100 97 94 100 99 90 100 96 98 99 100 99 100 100 96 90 73 88 83 63 76
86 95 97 100 100 100 99 100 98 98 94 89 98 97 93 93 95 100 100 98 97 95 97 95 82 74 98
81 91 99 100 99 100 93 100 100 100 87 93 92 93 94 98 97 95 97 95 96 91 96 94 97 82 90
83 90 98 99 97 100 100 100 100 98 100 100 87 95 84 93 96 96 93 100 99 94 96 87 92 89 74
99 100 99 100 100 100 100 100 100 100 100 100 98 96 98 85 83 95 92 94 100 100 98 89 94 91 87
100 100 100 100 100 100 100 100 99 99 99 100 100 100 93 82 95 92 96 96 100 99 99 98 96 90 84
90 99 100 100 100 100 100 100 99 100 98 98 98 99 99 95 88 93 92 92 100 100 99 98 94 92 81
91 97 100 100 100 100 100 100 100 100 99 99 99 99 97 94 89 86 90 95 100 100 99 97 94 94 79

GFSFLT2_925_rhum_105.txt.gz
RH
86 87 85 86 87 89 95 99 100 98 95 97 97 98 95 100 100 99 100 95 87 83 86 85 98 100 95
95 97 96 97 97 97 96 97 94 92 89 93 99 100 100 99 95 100 99 94 87 85 88 88 91 87 79
99 100 99 98 100 100 99 98 97 96 98 100 100 100 100 97 99 99 98 92 88 81 78 87 84 78 72
99 100 100 100 100 99 99 99 99 100 100 100 100 100 98 96 98 97 92 90 82 78 85 88 81 73 69
98 100 99 99 99 98 100 100 99 100 100 100 100 100 100 100 99 96 91 83 78 83 86 84 78 74 70
90 91 96 99 98 99 100 100 99 98 100 100 100 100 100 100 98 92 86 82 81 81 83 76 77 74 71
99 91 92 95 98 100 100 98 96 91 100 99 100 100 100 100 95 89 85 80 83 84 80 78 76 73 68
82 88 88 90 96 100 100 98 98 99 98 98 98 100 100 100 98 92 93 83 82 83 79 75 75 70 58
66 74 78 73 76 97 100 100 99 99 98 100 100 100 100 100 100 100 100 94 86 86 86 81 74 66 54
75 76 79 85 91 85 94 100 98 100 99 100 100 97 100 100 99 100 100 99 95 90 88 83 72 61 58
76 76 76 80 90 97 87 96 99 99 91 98 99 99 98 98 100 100 100 100 100 99 94 84 79 67 65
79 79 81 82 86 98 96 94 94 100 99 96 98 97 96 99 98 100 100 100 99 99 96 95 98 68 71
76 77 76 95 86 74 91 99 99 97 100 100 98 96 100 98 98 99 100 100 100 99 96 96 89 82 80
77 78 90 96 99 96 99 98 100 100 100 100 100 100 100 98 94 99 99 98 100 100 98 97 90 81 75
79 82 91 92 100 98 100 100 99 99 100 100 100 100 100 98 99 99 99 100 100 100 100 99 90 86 79
83 79 85 90 99 98 100 100 99 100 100 99 99 100 100 100 98 100 100 100 100 100 100 99 99 88 84
84 90 87 90 98 98 98 100 99 99 100 98 100 99 98 98 99 100 99 99 100 100 100 96 96 91 82

GFSFLT2_925_rhum_108.txt.gz
RH
83 78 86 91 91 84 86 88 85 88 89 92 88 89 91 92 92 97 98 99 97 92 91 96 79 89 96
97 100 100 100 99 95 100 100 100 100 98 100 95 94 94 96 96 100 100 100 98 94 93 84 81 90 98
99 98 99 100 100 100 99 100 100 97 95 94 97 94 95 96 100 100 100 100 96 94 87 81 80 85 96
98 98 100 97 97 98 96 93 92 89 92 93 96 95 94 95 100 100 100 100 100 92 86 82 78 80 85
90 89 89 99 100 98 100 97 96 92 89 91 98 100 99 100 100 100 98 99 96 90 85 77 75 85 83
89 96 89 86 96 100 100 100 99 87 98 91 98 100 100 100 98 100 100 100 95 88 79 73 79 83 78
82 86 90 96 94 94 99 99 98 92 96 99 98 100 100 100 100 100 100 99 92 84 76 76 81 80 76
62 73 74 74 82 94 95 97 99 98 99 100 98 99 98 99 100 100 100 98 91 81 76 77 80 78 77
68 69 72 79 79 83 97 98 97 98 92 100 98 100 100 99 99 100 100 100 93 84 79 79 79 78 75
76 76 67 71 76 83 90 97 92 92 87 100 100 99 100 99 99 100 100 100 99 94 90 84 78 76 74
80 74 75 81 80 83 84 92 100 93 98 96 100 100 98 98 100 100 100 100 100 100 98 88 80 76 74
79 75 78 76 72 76 82 76 76 84 95 100 99 99 98 100 99 100 100 100 100 100 100 98 92 80 74
72 73 75 71 73 75 80 81 87 82 88 98 100 99 100 97 95 99 98 100 100 100 100 100 99 93 80
82 70 77 83 92 90 100 96 98 98 87 94 100 100 100 100 96 97 99 99 100 100 99 100 100 91 74
83 78 80 85 82 83 85 99 99 97 97 93 99 100 100 100 99 99 100 100 100 100 100 100 100 97 84
76 71 80 87 88 80 93 100 99 98 100 100 100 100 100 100 100 100 100 99 100 100 100 99 100 100 89
88 75 72 87 89 90 96 98 98 99 99 100 100 99 98 97 100 99 98 100 100 100 100 100 99 100 96

GFSFLT2_925_rhum_111.txt.gz
RH
93 86 99 91 86 90 92 87 83 87 83 86 84 86 89 88 88 88 83 75 89 87 100 99 90 77 78
94 93 94 92 99 100 100 100 99 98 98 100 99 100 100 100 100 100 95 93 98 100 100 99 88 82 94
97 94 96 98 94 91 98 100 100 100 100 99 100 96 95 95 95 93 90 95 99 100 100 100 91 94 98
95 89 85 90 95 99 98 97 98 99 94 93 85 83 86 88 91 88 88 96 100 100 100 100 96 94 99
93 89 92 93 93 98 100 100 96 94 94 86 86 83 89 96 88 81 86 91 100 100 100 99 97 93 84
93 88 88 92 92 98 96 98 99 99 100 98 89 87 98 100 98 88 96 100 100 100 98 98 96 88 78
80 76 94 83 86 92 95 98 95 90 91 96 94 91 88 99 100 99 99 100 100 99 100 96 92 83 76
73 79 81 82 82 82 86 91 94 83 84 97 93 90 86 90 96 100 100 100 100 100 100 97 85 78 78
76 81 79 80 73 78 85 89 81 78 79 97 94 98 95 90 86 97 100 100 100 100 100 94 82 79 79
75 76 79 72 66 84 85 95 81 80 85 97 93 100 100 97 89 86 99 100 100 100 100 99 91 89 84
91 85 82 71 69 75 73 80 92 95 82 95 97 99 100 96 94 95 100 100 100 100 100 99 94 89 84
93 83 82 72 68 68 68 74 73 81 79 78 98 100 100 100 98 94 98 100 100 100 100 100 98 93 87
87 86 81 71 67 64 85 83 67 73 79 83 84 97 100 98 98 92 97 99 100 100 100 100 99 99 99
98 97 88 81 75 70 67 78 85 94 75 80 83 85 100 100 100 95 89 98 100 100 100 100 100 100 94
94 94 84 79 83 78 81 79 90 95 94 91 82 97 100 100 100 100 98 100 100 100 100 100 100 99 96
96 92 90 84 76 80 86 84 97 93 97 98 100 100 100 98 100 99 100 100 99 100 100 100 100 100 98
100 100 98 91 86 80 87 89 96 97 97 99 100 99 98 97 99 100 100 100 100 100 100 100 98 100 99

GFSFLT2_925_rhum_114.txt.gz
RH
94 92 94 84 91 92 100 99 98 94 100 97 93 83 82 86 87 87 88 86 94 91 81 93 100 100 99
88 92 85 98 96 91 96 100 100 100 100 96 94 91 90 91 90 90 90 87 88 94 94 85 94 100 100
93 90 88 85 88 92 98 96 94 95 97 100 100 100 100 100 100 98 97 98 93 96 94 94 95 100 100
88 91 86 80 87 99 96 92 93 92 91 100 95 99 99 98 99 99 97 100 98 96 99 100 100 100 100
86 87 86 88 91 86 91 89 84 100 98 98 97 93 94 96 100 100 100 100 100 99 100 100 100 100 100
88 92 86 99 99 100 99 95 91 83 95 97 88 95 90 90 92 100 100 100 96 94 99 100 100 100 100
77 82 94 85 86 89 89 94 93 88 85 86 83 84 85 80 85 92 99 98 93 100 98 100 100 100 99
81 78 76 82 84 81 83 88 87 76 78 95 82 87 83 77 77 79 92 99 100 99 100 100 100 99 100
85 84 84 83 84 79 83 100 91 80 74 81 75 90 76 75 68 76 80 94 100 100 98 100 100 100 100
96 92 86 86 81 70 73 100 86 78 89 92 96 99 99 95 93 85 82 82 99 100 100 100 100 100 98
88 93 80 67 81 70 64 69 86 85 74 84 89 92 89 93 81 88 88 89 99 100 100 100 99 99 93
86 94 90 86 75 72 65 66 70 72 76 79 88 95 95 93 91 85 88 83 100 100 100 100 100 100 94
99 98 91 86 97 81 72 65 76 62 65 64 81 78 89 92 89 91 96 90 100 100 100 100 99 100 100
90 89 87 88 94 86 75 79 83 82 66 62 81 76 91 92 86 91 98 98 90 100 100 100 100 100 99
88 94 99 98 95 83 76 76 97 92 90 85 76 88 91 100 99 93 96 100 97 94 100 100 100 99 99
100 100 100 100 100 96 87 87 97 90 91 84 96 99 100 98 96 100 100 99 100 98 99 100 100 100 100
100 99 100 100 99 98 95 96 99 98 98 91 99 98 97 95 79 98 100 100 100 100 100 100 98 98 98

GFSFLT2_925_rhum_117.txt.gz
RH
82 86 93 95 88 88 94 98 97 99 99 100 100 99 93 96 92 89 77 76 75 80 81 92 100 100 99
82 83 93 95 92 84 96 94 90 93 96 100 100 100 100 100 94 91 95 92 90 91 93 93 96 100 100
84 78 87 87 92 93 88 87 74 80 100 100 100 100 100 100 100 97 96 97 96 93 90 89 94 93 100
83 82 85 82 92 96 93 95 92 88 96 97 97 97 100 100 100 99 100 100 100 98 93 91 90 89 88
86 82 86 92 94 94 89 90 92 98 81 67 59 65 89 94 97 99 100 100 100 100 100 100 100 99 99
88 88 87 89 86 92 91 85 86 80 88 78 67 75 50 72 92 94 96 99 100 100 100 100 100 100 100
90 88 90 86 85 90 90 89 87 79 92 86 76 87 87 79 84 90 88 92 97 99 100 100 97 96 97
86 85 87 88 87 87 93 81 84 83 82 90 70 78 83 75 68 83 90 86 89 93 94 100 100 98 97
82 86 88 86 89 95 90 92 87 77 67 97 95 93 74 86 98 97 91 86 87 91 99 93 99 100 100
83 80 72 66 71 77 87 95 96 88 87 88 82 91 92 70 83 73 72 75 86 92 100 100 100 100 100
72 70 72 76 77 78 83 80 73 85 69 84 86 85 86 85 76 73 76 71 74 92 99 100 100 100 100
79 88 93 89 79 81 86 87 75 76 73 82 88 83 87 90 85 77 80 76 80 94 100 100 100 100 100
98 94 88 80 81 84 84 97 78 65 65 63 72 73 88 96 85 85 85 84 79 80 80 100 100 100 100
97 95 89 93 100 92 94 86 90 76 65 66 69 94 100 100 95 84 86 89 84 94 98 100 100 100 99
96 100 99 98 98 100 99 98 99 98 93 81 72 71 73 100 99 99 96 82 79 89 99 100 99 100 100
100 93 91 91 98 99 99 100 100 98 98 88 91 96 90 87 99 98 97 98 88 92 99 99 100 98 100
94 95 97 97 96 100 100 100 99 96 92 90 99 98 96 94 77 91 100 98 94 95 97 98 99 98 98

GFSFLT2_925_rhum_120.txt.gz
RH
77 65 64 68 85 72 92 80 76 77 89 99 97 98 100 100 100 96 94 91 89 80 80 80 82 96 100
79 80 73 69 83 92 92 90 80 68 94 100 90 97 98 100 100 100 98 92 98 90 85 88 85 84 81
88 83 77 73 76 86 85 84 80 52 100 93 94 89 90 98 100 100 100 100 98 95 94 90 86 86 87
88 85 83 79 81 86 86 86 85 73 77 45 31 50 77 81 90 100 99 100 100 100 99 97 93 93 96
92 75 88 88 91 92 92 90 84 69 75 78 82 57 40 60 76 93 99 100 100 100 100 100 100 98 96
92 93 92 95 95 97 98 93 89 74 84 82 83 92 95 88 72 64 84 99 100 100 100 100 100 100 100
92 94 98 91 94 100 98 97 94 88 82 82 71 83 94 88 82 94 77 92 99 97 98 100 99 99 100
86 83 83 84 85 92 95 98 91 76 71 89 73 96 77 54 96 100 99 98 99 100 97 93 98 100 100
84 86 86 81 77 85 92 98 88 86 69 98 86 81 72 57 71 84 84 78 74 91 100 94 93 98 93
86 83 73 60 60 77 90 99 97 92 65 76 81 85 89 66 71 60 53 50 48 50 74 98 95 95 88
86 74 66 66 69 66 74 91 100 97 80 86 93 93 85 83 77 72 69 65 55 50 71 92 97 100 100
89 89 89 90 82 81 74 80 90 100 94 84 100 89 92 90 85 70 75 77 77 75 70 87 96 99 100
96 96 99 90 86 88 80 83 86 84 87 76 73 73 87 98 95 92 87 80 71 92 89 89 99 100 99
92 94 100 99 99 98 99 100 100 84 76 79 74 80 90 100 99 92 93 95 78 75 71 71 86 99 100
95 99 94 84 89 89 96 99 100 97 93 78 77 79 87 95 100 95 89 91 92 91 86 85 91 99 100
99 98 99 99 96 93 91 100 99 99 100 92 93 94 86 74 92 100 97 93 94 94 94 87 96 98 100
100 100 99 97 93 93 96 97 98 100 95 90 98 100 98 94 74 71 98 99 94 93 92 91 98 93 99

GFSFLT2_925_rhum_123.txt.gz
RH
76 82 81 82 79 78 84 76 80 75 78 96 100 97 92 92 96 90 99 100 100 97 96 92 97 92 87
79 84 85 84 82 83 81 76 80 77 77 100 78 81 82 86 98 94 88 98 100 100 97 86 98 93 88
79 83 83 84 85 83 79 81 80 79 80 81 73 80 83 86 94 99 96 89 98 98 100 97 98 97 93
79 78 74 75 80 78 80 80 84 78 82 78 75 73 82 84 93 92 97 94 90 99 99 100 100 98 92
76 76 71 73 76 81 86 89 88 78 83 80 77 68 70 92 98 99 95 99 96 96 99 99 100 100 96
78 74 72 78 81 83 90 81 81 75 82 81 73 73 83 94 84 92 99 99 98 98 96 99 100 99 100
79 76 82 80 85 89 83 81 77 78 84 78 70 78 84 66 64 76 100 100 96 94 97 95 99 100 100
87 88 89 89 82 79 77 80 79 77 80 81 71 77 71 65 62 97 88 91 74 93 88 94 96 99 100
87 88 86 83 84 78 76 84 80 76 77 87 72 78 77 72 72 75 68 76 94 93 85 74 94 99 97
84 84 91 82 70 82 88 84 83 79 64 84 81 80 73 68 71 70 67 70 84 86 90 97 82 98 99
86 85 84 85 85 86 90 96 93 90 88 95 93 88 81 77 68 69 73 74 75 77 87 70 89 100 100
73 76 82 88 91 97 98 99 100 100 97 99 99 98 92 86 80 68 74 81 88 82 89 87 70 86 99
78 80 82 90 100 100 100 100 100 100 89 83 100 100 100 93 90 87 80 78 84 99 90 90 88 72 96
83 85 90 90 89 88 88 89 93 97 82 73 80 97 100 94 94 95 90 90 78 80 93 93 93 82 89
92 90 89 87 84 88 92 92 95 89 89 86 84 94 98 96 100 91 92 93 90 92 95 96 94 92 79
96 97 96 97 96 95 92 92 92 86 96 98 100 100 92 81 79 95 98 92 92 93 93 99 95 92 86
100 98 98 100 97 95 93 93 88 86 93 99 100 99 91 89 72 76 89 92 86 90 92 93 96 95 85

GFSFLT2_925_rhum_126.txt.gz
RH
55 59 65 67 69 69 67 65 62 69 74 79 83 77 75 78 82 85 92 100 100 91 97 100 99 100 95
63 64 68 68 69 71 68 64 67 66 77 75 80 76 76 76 80 91 90 95 100 97 93 94 99 100 100
65 64 65 67 67 69 66 65 66 66 67 71 75 75 74 73 80 93 97 99 94 100 97 96 98 98 98
65 64 62 62 62 62 62 63 69 71 69 69 70 68 68 70 86 89 82 100 98 99 99 99 98 97 99
63 62 61 58 60 63 65 70 78 68 67 63 62 62 61 66 76 70 70 94 100 100 97 99 98 92 95
64 60 58 59 60 63 73 82 74 60 61 64 61 62 62 66 67 69 76 96 95 98 91 97 98 97 94
71 66 64 65 71 81 81 77 66 63 64 67 62 58 62 60 67 71 78 84 73 77 87 90 94 96 98
72 77 75 77 92 89 83 73 66 61 60 69 61 64 61 63 64 70 77 70 74 73 82 86 87 96 99
81 78 79 81 78 83 78 71 68 60 60 66 63 65 69 71 62 65 70 68 70 75 74 80 92 95 85
68 63 66 70 75 76 73 76 75 75 60 67 74 76 73 62 63 66 64 66 68 68 79 86 92 99 98
64 63 60 61 66 70 75 81 87 84 78 81 86 87 85 83 69 68 67 66 71 76 72 81 100 90 98
60 59 62 68 73 77 83 89 95 97 99 100 99 96 92 88 79 68 70 75 77 82 88 92 80 91 94
64 67 71 77 83 89 87 88 94 90 94 92 97 97 97 92 86 81 74 79 82 80 84 87 90 93 95
76 75 79 88 92 90 92 89 90 85 83 82 91 95 96 93 91 88 84 85 80 87 90 92 92 94 97
81 83 82 82 86 90 92 92 94 89 85 80 83 89 94 100 97 92 83 80 85 86 92 94 91 91 92
88 92 91 92 93 90 91 93 92 85 83 81 84 90 87 81 92 94 85 81 80 80 84 82 83 82 87
94 94 93 93 90 89 89 91 90 88 88 84 91 92 92 88 67 68 82 84 83 85 85 86 88 87 89

GFSFLT2_925_rhum_129.txt.gz
RH
58 60 63 65 66 66 67 63 60 63 69 74 77 81 81 79 77 77 86 89 89 88 86 99 100 100 100
67 67 66 64 64 68 67 64 61 62 68 70 70 76 79 76 75 77 89 87 88 100 94 90 98 100 100
70 67 65 63 63 63 62 61 62 64 68 67 69 72 68 70 70 76 87 75 76 87 95 98 100 100 100
68 71 67 63 60 59 62 63 67 70 71 68 67 62 63 64 65 72 78 74 76 80 91 99 96 92 96
70 68 66 60 60 61 64 70 69 71 66 63 61 62 63 60 63 65 72 76 80 87 80 82 84 86 88
74 71 65 62 62 66 75 75 81 69 64 64 63 65 64 62 59 64 70 73 79 76 76 75 78 82 81
80 76 72 73 73 76 80 84 83 75 70 68 64 65 63 63 63 66 67 71 77 75 73 76 76 77 80
72 76 79 80 85 90 94 98 88 74 67 69 64 65 69 67 63 66 70 69 72 71 71 72 72 79 85
78 78 74 71 71 73 83 83 81 74 68 68 68 71 72 71 70 61 66 69 65 68 69 69 76 79 85
79 74 65 63 66 65 70 79 82 85 70 71 86 83 81 67 65 62 67 68 67 66 70 71 76 83 92
73 67 61 60 59 64 70 76 84 88 84 87 96 92 89 89 78 77 77 73 71 74 78 81 84 77 81
67 61 60 64 68 74 79 85 84 87 86 86 97 97 94 90 84 75 77 76 76 78 80 83 84 86 86
64 67 70 75 79 79 81 82 88 89 93 96 95 95 97 95 91 87 81 84 86 75 81 87 88 89 83
77 78 78 79 85 91 95 92 93 94 87 79 78 85 96 97 98 93 86 90 87 87 79 88 87 90 87
82 86 86 89 95 96 96 92 94 91 86 84 83 79 86 94 96 90 88 89 87 84 84 84 80 84 82
87 90 93 96 94 93 98 99 96 91 90 87 87 94 86 84 82 86 90 94 91 88 85 87 86 84 85
92 91 94 95 87 92 94 95 94 92 90 89 93 95 93 91 70 66 68 83 90 85 84 86 88 89 91

GFSFLT2_925_rhum_132.txt.gz
RH
68 64 67 68 65 65 66 68 62 64 67 72 74 75 79 80 78 77 78 82 84 77 81 84 96 94 100
72 72 70 67 65 63 62 61 63 61 70 76 72 78 73 74 71 73 73 82 82 78 79 78 93 94 84
74 70 69 62 68 62 61 61 58 68 69 64 74 72 72 66 68 69 71 78 81 79 80 80 80 82 85
69 76 74 71 64 64 62 62 71 69 58 68 70 70 65 67 67 67 69 71 76 78 80 82 79 79 75
81 80 81 74 72 68 74 76 73 66 72 69 61 64 64 66 64 66 65 71 73 74 78 79 78 78 78
84 83 75 72 71 75 78 78 83 76 80 80 75 71 68 64 66 69 71 72 68 72 76 77 76 75 77
84 93 87 80 76 76 81 91 92 89 92 88 76 72 67 67 66 76 72 66 77 73 74 71 72 74 74
71 72 72 76 83 89 97 100 99 91 82 83 74 75 71 71 73 73 68 74 72 74 68 70 71 72 74
77 80 83 78 74 73 72 80 83 79 77 79 80 82 79 77 64 64 74 80 71 70 70 70 69 73 78
83 86 85 74 71 68 62 69 80 83 76 82 87 97 79 69 72 69 65 77 75 75 70 70 74 74 82
94 88 72 69 63 60 61 69 74 86 84 92 90 94 94 88 80 77 78 78 77 74 83 78 79 78 78
89 80 70 62 62 67 74 78 81 80 75 75 91 97 97 92 86 76 79 88 78 81 73 89 76 80 79
75 68 68 72 74 74 72 73 80 86 83 87 94 100 99 95 92 90 83 87 88 75 74 80 88 85 81
67 72 76 74 79 80 85 92 100 95 84 75 79 85 95 97 100 93 89 91 86 86 88 92 95 91 87
70 84 86 84 94 93 96 98 99 95 93 91 86 86 86 88 94 89 82 84 88 90 98 95 96 91 86
81 92 94 96 97 95 98 100 98 93 92 91 91 93 92 90 93 94 90 93 92 89 97 98 88 80 84
93 95 95 99 94 96 96 96 96 95 95 96 97 100 94 90 70 70 74 80 90 94 86 84 90 90 90

GFSFLT2_925_rhum_135.txt.gz
RH
67 66 65 65 68 59 62 62 61 64 65 76 76 72 82 79 78 73 76 77 78 82 81 80 80 76 80
72 73 70 65 67 69 62 64 63 60 74 75 66 77 78 77 75 71 75 74 76 80 81 81 81 80 80
80 76 71 66 74 67 65 63 65 69 71 68 75 78 77 74 67 73 72 73 74 76 78 79 80 81 80
76 76 75 73 74 70 72 73 72 66 59 66 77 72 69 70 73 70 73 73 72 74 75 76 77 79 78
85 83 85 80 77 73 74 76 73 70 71 73 70 75 69 65 67 70 72 73 77 78 71 71 75 78 76
86 89 89 86 88 83 80 82 82 74 83 91 91 85 71 69 70 71 72 80 80 71 79 78 77 74 72
81 84 87 76 77 81 86 87 91 92 97 94 86 80 69 71 73 75 75 75 73 78 80 82 77 69 72
76 76 76 76 81 90 97 98 98 95 84 90 75 79 79 73 64 76 76 75 77 80 77 74 72 73 73
81 81 81 82 82 86 83 79 84 73 69 78 87 84 82 76 64 64 78 81 71 72 76 76 74 72 73
76 76 83 88 86 73 70 77 74 80 73 82 82 94 87 68 71 67 68 70 78 78 79 77 74 78 80
97 100 92 84 78 67 66 63 73 82 77 88 88 92 92 89 84 82 80 76 74 75 79 81 80 79 88
100 98 92 78 66 68 72 76 76 77 74 76 92 93 97 92 88 80 80 83 85 83 79 78 81 79 78
100 94 66 64 72 75 73 74 76 74 74 76 86 90 100 97 92 91 85 85 88 91 89 80 82 87 91
81 67 70 76 74 80 86 86 97 97 86 82 85 90 100 100 100 96 91 90 86 90 90 88 93 96 100
72 73 79 82 88 87 92 95 100 97 94 91 82 85 88 91 100 94 92 91 90 91 92 96 94 92 91
74 81 84 92 94 91 95 100 99 93 95 96 96 97 96 94 97 100 97 97 94 94 94 96 90 86 86
82 88 92 97 94 98 96 98 96 96 95 96 100 100 94 91 72 72 78 80 85 88 90 92 91 89 89

GFSFLT2_925_rhum_138.txt.gz
RH
69 63 65 68 63 60 68 60 64 64 69 77 78 74 80 83 81 79 74 78 78 78 79 80 81 81 79
70 70 73 71 64 60 69 65 65 65 77 79 75 74 81 82 79 75 75 78 76 77 78 78 79 80 79
80 79 76 72 61 65 66 65 68 69 65 71 77 80 82 77 76 77 78 76 77 77 76 77 78 78 78
72 73 77 72 74 76 77 75 72 66 64 68 78 78 80 82 79 79 77 79 77 79 80 82 77 74 76
86 89 90 82 82 84 86 78 77 69 70 71 78 74 65 62 65 66 82 77 79 83 82 77 79 78 77
89 92 89 87 89 86 84 90 91 76 80 92 90 85 65 61 66 79 78 80 80 80 78 80 81 83 81
82 84 85 80 75 78 83 89 92 91 94 94 89 80 64 65 58 77 80 81 82 80 79 80 78 78 77
68 69 72 77 80 82 96 99 100 92 84 96 71 71 71 70 58 76 87 82 80 83 76 75 77 78 77
80 87 89 84 87 98 99 95 88 80 76 70 79 82 79 70 54 57 79 81 73 76 80 81 80 80 79
75 78 78 77 87 96 96 89 88 81 67 76 75 83 92 77 71 62 67 64 79 82 82 78 79 81 82
87 87 91 88 92 86 82 74 82 79 65 82 89 90 92 90 83 82 82 81 73 75 77 82 83 84 86
96 100 100 93 84 69 66 70 74 76 75 78 87 88 94 92 86 83 84 85 86 85 79 80 87 86 81
88 91 94 85 74 68 73 74 76 77 79 80 83 83 97 99 94 87 89 88 88 89 86 82 82 90 92
94 93 84 80 72 74 82 82 90 95 85 82 84 90 100 100 99 97 93 94 86 89 90 94 94 94 92
88 88 87 78 82 87 84 88 98 98 97 92 88 92 94 98 100 95 93 95 94 95 97 98 96 95 94
85 76 76 80 86 90 87 95 100 98 96 93 91 98 99 94 100 100 99 98 97 98 98 100 93 88 89
80 75 81 90 92 97 96 97 98 97 97 92 97 99 95 91 72 71 79 84 88 90 90 92 92 88 88

GFSFLT2_925_rhum_141.txt.gz
RH
65 60 56 56 57 57 50 62 62 64 77 75 82 82 79 81 82 80 82 78 81 82 80 80 79 80 80
67 66 62 64 61 59 52 60 63 64 75 81 78 78 79 84 80 80 79 78 80 79 80 80 80 79 80
73 72 72 70 63 62 65 69 71 68 73 72 78 84 84 84 83 83 82 82 79 80 80 81 81 84 82
72 74 73 69 78 78 76 76 74 71 66 71 80 80 83 83 83 84 84 83 82 80 80 83 84 80 79
83 83 87 86 84 81 88 82 76 71 68 67 70 74 67 63 60 53 62 85 81 82 82 81 80 80 79
86 92 91 84 84 83 89 94 96 76 78 80 87 78 70 64 58 83 86 82 83 83 82 82 81 80 81
86 87 87 81 82 82 80 88 91 86 92 98 88 84 68 58 66 76 83 85 86 85 83 84 84 81 80
69 81 76 66 70 76 80 91 98 98 99 97 81 76 65 63 57 73 86 89 87 82 79 80 81 83 83
72 71 74 84 90 98 99 100 96 89 81 82 80 73 71 67 55 54 63 83 80 75 81 83 85 84 81
72 74 80 85 86 84 88 99 98 90 68 83 74 77 86 78 66 56 58 65 78 83 86 85 85 83 84
82 81 82 82 94 86 93 100 99 96 82 75 79 86 92 86 84 80 78 80 73 72 76 82 86 88 90
89 93 96 96 95 85 83 88 76 72 70 76 86 85 90 92 88 81 83 84 83 84 80 74 85 85 89
98 99 98 94 87 91 86 68 71 75 77 79 82 84 94 98 92 91 89 85 87 88 86 75 68 70 80
100 95 93 97 94 89 84 73 79 83 79 79 81 87 100 100 100 97 94 94 87 90 91 94 97 95 95
100 98 98 94 91 85 82 86 99 95 93 87 84 86 90 95 100 97 96 96 92 96 100 100 100 96 91
98 97 99 95 90 83 90 97 98 96 98 92 92 98 99 94 100 100 100 99 96 97 99 100 95 92 93
98 100 96 92 87 96 98 98 98 98 97 89 93 100 95 91 76 73 91 89 89 92 93 97 95 89 88

GFSFLT2_925_rhum_144.txt.gz
RH
58 53 49 47 49 52 50 46 50 54 69 80 78 84 83 82 82 83 80 82 81 81 82 81 80 78 79
60 62 61 59 56 56 49 52 60 63 74 78 81 81 81 82 82 82 83 84 83 82 82 81 81 79 79
71 68 66 68 62 60 57 62 64 69 74 76 79 82 86 85 81 88 85 87 87 84 83 82 82 81 81
77 73 71 65 68 73 72 70 69 67 61 69 73 81 86 77 85 88 86 83 84 83 83 83 85 84 82
81 79 78 75 77 75 82 79 79 66 66 64 64 67 72 64 62 54 59 80 87 84 84 84 84 83 83
79 82 78 75 79 82 85 94 94 70 81 75 77 81 72 67 65 61 84 90 86 85 85 85 84 84 84
79 80 83 82 80 84 86 87 88 77 86 96 90 90 73 62 66 76 82 84 85 87 87 84 84 84 82
98 88 88 84 78 80 69 75 86 93 96 97 88 82 73 68 60 67 82 86 89 88 85 83 81 84 84
92 74 72 67 72 76 86 100 94 90 95 100 91 81 76 59 56 67 87 87 88 78 79 80 85 86 86
96 82 86 87 88 89 100 99 88 88 85 93 84 74 79 74 65 59 60 62 67 82 84 87 88 88 86
82 76 72 73 75 78 92 99 99 96 92 84 85 79 82 83 82 79 75 73 71 66 66 77 84 88 90
86 90 88 86 81 90 98 98 94 96 98 98 91 91 94 92 89 80 82 82 81 78 77 75 87 93 92
99 94 92 88 90 97 98 98 94 88 78 73 76 82 92 96 93 90 91 88 86 85 86 82 71 70 72
93 89 89 97 100 97 98 96 98 92 73 75 80 83 100 100 99 96 94 95 85 87 90 92 89 88 83
95 100 100 100 98 98 97 98 97 92 93 84 83 82 87 94 100 96 93 94 96 98 99 100 97 98 92
100 100 100 100 98 97 97 96 100 98 98 90 87 94 99 93 100 99 98 98 99 98 97 100 95 92 92
100 100 100 98 99 98 97 98 100 100 96 92 96 100 95 93 75 75 97 98 100 100 100 100 98 92 91

GFSFLT2_925_rhum_147.txt.gz
RH
49 46 48 45 45 45 45 44 40 39 45 75 79 80 83 84 83 83 77 83 85 80 80 80 78 77 75
56 67 54 55 50 50 47 49 47 48 54 79 81 82 84 84 84 83 83 84 83 83 82 82 80 79 77
62 68 68 60 64 61 54 53 52 54 59 78 79 80 82 84 85 85 84 89 86 86 85 83 82 81 79
71 69 71 72 74 72 67 71 70 63 60 61 72 84 87 87 85 85 89 90 85 84 84 82 84 83 80
71 69 68 72 71 66 72 74 78 75 74 61 61 63 70 74 72 66 70 82 82 83 84 82 80 82 82
62 64 60 68 72 72 77 84 73 66 77 71 72 76 79 82 67 65 86 87 86 87 85 84 83 81 82
56 60 64 77 77 82 88 88 80 74 81 77 82 85 85 83 68 77 87 85 83 86 85 85 84 84 82
74 70 85 86 89 92 87 86 87 85 88 89 81 80 80 84 74 67 85 84 85 86 88 86 86 85 84
87 96 89 100 100 98 97 90 78 75 92 98 82 84 82 75 70 59 78 90 88 88 86 83 81 82 85
67 79 99 99 100 96 92 86 85 87 82 95 85 89 72 79 77 69 62 65 78 83 82 84 87 87 85
82 96 100 99 97 91 98 98 96 93 85 84 92 89 81 75 77 77 78 75 79 75 69 79 84 87 85
100 100 98 92 74 69 76 88 92 94 97 99 98 96 94 84 80 77 77 81 83 83 83 86 87 91 93
100 98 96 84 80 84 84 84 97 99 100 99 98 100 100 88 86 84 83 80 86 91 94 95 91 88 88
99 98 97 98 99 90 100 99 100 100 93 96 94 83 98 99 98 95 88 90 87 91 95 96 93 92 92
99 96 99 100 100 100 100 99 99 93 98 90 90 84 93 98 97 92 90 89 89 91 93 98 96 93 92
100 99 99 99 99 99 99 99 97 95 98 99 94 100 100 95 99 98 94 94 92 94 95 98 97 92 89
99 100 100 99 98 99 100 99 98 97 98 100 99 100 93 91 75 82 100 96 95 96 94 97 96 91 85